Danville, IN

12:15 AM EDT on October 20, 2017 (GMT -0400)
Vermilion County

Weather History for KDNV - October, 2013

Change the Weather History Date:

Saturday, October 5, 2013

  Actual Average (KLAF) Record (KLAF)
Temperature  
Mean Temperature 70 °F -  
Max Temperature 78 °F 69 °F 88 °F (2007)
Min Temperature 63 °F 46 °F 28 °F (2004)
Cooling Degree Days 6    
Growing Degree Days 20 (Base 50)    
Moisture  
Dew Point 65 °F    
Average Humidity 91    
Maximum Humidity 97    
Minimum Humidity 69    
Precipitation  
Precipitation 3.73 in - - ()
Sea Level Pressure  
Sea Level Pressure 29.90 in    
Wind  
Wind Speed 7 mph (South)    
Max Wind Speed 20 mph    
Max Gust Speed 33 mph    
Visibility 6 miles    
Events Rain    
Averages and records for this station are not official NWS values.
T = Trace of Precipitation, MM = Missing Value Source: NWS Daily Summary

Daily Weather History Graph

Daily Weather History Graph

Search for Another Location

Airport or City:

Trip Planner

Search our weather history database for the weather conditions in past years. The results will help you decide how hot, cold, wet, or windy it might be!

Date:

Astronomy

Oct. 05, 2013 Rise Set
Actual Time 6:51 AM CDT 6:25 PM CDT
Civil Twilight 6:23 AM CDT 6:52 PM CDT
Nautical Twilight 5:52 AM CDT 7:24 PM CDT
Astronomical Twilight 5:20 AM CDT 7:55 PM CDT
Moon 7:30 AM CDT (10/5) 6:44 PM CDT (10/5)
Length of Visible Light 12h 28m
Length of Day
11h 34m
New Moon, 1% of the Moon is Illuminated
Oct 5
New Moon
Oct 11
First Quarter
Oct 18
Full
Oct 26
Last Quarter
Nov 3
New

Hourly Weather History & Observations

Time (CDT) Temp. Dew Point Humidity Pressure Visibility Wind Dir Wind Speed Gust Speed Precip Events Conditions
12:15 AM 68.5 °F 65.7 °F 90% 29.97 in 5.0 mi South 5.8 mph - N/A Rain Rain
12:35 AM 68.0 °F 65.5 °F 92% 29.97 in 7.0 mi South 5.8 mph - N/A Rain Rain
12:55 AM 68.0 °F 65.5 °F 92% 29.97 in 7.0 mi South 5.8 mph - N/A Rain Heavy Rain
1:15 AM 67.3 °F 65.1 °F 93% 29.97 in 7.0 mi South 5.8 mph - N/A Rain Heavy Rain
1:35 AM 67.1 °F 64.9 °F 93% 29.98 in 7.0 mi SSE 3.5 mph - N/A Rain Rain
1:55 AM 67.1 °F 64.9 °F 93% 29.98 in 7.0 mi South 3.5 mph - N/A Rain Heavy Rain
2:15 AM 67.1 °F 65.3 °F 94% 29.97 in 7.0 mi South 5.8 mph - N/A Rain Heavy Rain
2:35 AM 67.5 °F 65.7 °F 94% 29.97 in 7.0 mi SSE 6.9 mph - N/A Rain Rain
2:55 AM 68.0 °F 66.2 °F 94% 29.97 in 7.0 mi SSE 4.6 mph - N/A Rain Rain
3:15 AM 68.0 °F 65.7 °F 92% 29.96 in 7.0 mi South 5.8 mph - N/A Rain Rain
3:35 AM 67.6 °F 65.5 °F 93% 29.95 in 7.0 mi South 5.8 mph - N/A Rain Heavy Rain
3:55 AM 67.3 °F 65.3 °F 93% 29.95 in 7.0 mi South 3.5 mph - N/A Rain Heavy Rain
4:15 AM 67.1 °F 65.3 °F 94% 29.95 in 7.0 mi South 8.1 mph - N/A Rain Heavy Rain
4:35 AM 67.5 °F 65.8 °F 95% 29.95 in 7.0 mi South 8.1 mph - N/A Rain Rain
4:55 AM 67.5 °F 65.8 °F 95% 29.95 in 5.0 mi South 6.9 mph - N/A Rain Rain
5:15 AM 67.1 °F 65.3 °F 94% 29.95 in 7.0 mi South 5.8 mph - N/A Rain Rain
5:35 AM 67.1 °F 65.5 °F 95% 29.95 in 5.0 mi South 6.9 mph - N/A Rain Heavy Rain
5:55 AM 66.9 °F 65.5 °F 95% 29.95 in 5.0 mi South 5.8 mph - N/A Rain Rain
6:15 AM 66.7 °F 65.5 °F 96% 29.95 in 5.0 mi South 6.9 mph - N/A Rain Heavy Rain
6:35 AM 67.1 °F 65.7 °F 95% 29.95 in 5.0 mi South 6.9 mph - N/A Rain Heavy Rain
6:55 AM 66.7 °F 65.5 °F 96% 29.95 in 5.0 mi South 6.9 mph - N/A Rain Heavy Rain
7:15 AM 67.1 °F 66.2 °F 97% 29.94 in 4.0 mi South 6.9 mph - N/A Rain Heavy Rain
7:35 AM 67.6 °F 66.6 °F 96% 29.94 in 4.0 mi South 6.9 mph - N/A Rain Rain
7:55 AM 68.2 °F 67.1 °F 96% 29.93 in 4.0 mi South 4.6 mph - N/A Rain Rain
8:15 AM 69.1 °F 68.0 °F 96% 29.94 in 5.0 mi South 5.8 mph - N/A Rain Heavy Rain
8:35 AM 69.3 °F 67.6 °F 95% 29.94 in 5.0 mi South 10.4 mph - N/A Rain Rain
8:55 AM 69.8 °F 68.0 °F 94% 29.94 in 5.0 mi South 10.4 mph - N/A Rain Rain
9:15 AM 70.0 °F 68.0 °F 93% 29.95 in 4.0 mi South 9.2 mph - N/A Rain Rain
9:35 AM 70.3 °F 68.0 °F 92% 29.95 in 4.0 mi South 6.9 mph - N/A Rain Rain
9:55 AM 70.7 °F 68.2 °F 92% 29.95 in 4.0 mi South 5.8 mph - N/A Rain Rain
10:15 AM 71.8 °F 68.4 °F 89% 29.95 in 5.0 mi South 6.9 mph - N/A Rain Rain
10:35 AM 71.8 °F 68.2 °F 88% 29.95 in 5.0 mi South 8.1 mph - N/A Rain Rain
10:55 AM 71.6 °F 68.0 °F 88% 29.94 in 7.0 mi SSW 5.8 mph - N/A Rain Light Rain
11:15 AM 71.8 °F 68.9 °F 91% 29.94 in 5.0 mi SSW 4.6 mph - N/A Rain Heavy Rain
11:35 AM 73.0 °F 68.9 °F 87% 29.93 in 5.0 mi SSW 9.2 mph - N/A Rain Heavy Rain
11:55 AM 74.1 °F 68.7 °F 83% 29.92 in 5.0 mi SSW 10.4 mph - N/A Rain Rain
12:15 PM 76.6 °F 68.7 °F 76% 29.92 in 7.0 mi SSW 11.5 mph - N/A Rain Rain
12:35 PM 77.0 °F 68.2 °F 74% 29.90 in 7.0 mi South 11.5 mph - N/A Rain Rain
12:55 PM 78.1 °F 68.7 °F 73% 29.90 in 7.0 mi South 9.2 mph - N/A Rain Rain
1:15 PM 76.5 °F 68.0 °F 75% 29.88 in 7.0 mi South 12.7 mph 16.1 mph N/A Rain Light Rain
1:35 PM 76.8 °F 68.2 °F 75% 29.86 in 7.0 mi SSE 13.8 mph 18.4 mph N/A Rain Rain
1:55 PM 78.3 °F 67.3 °F 69% 29.85 in 7.0 mi South 16.1 mph 21.9 mph N/A Rain Rain
2:15 PM 77.7 °F 66.9 °F 69% 29.87 in 5.0 mi SSW 17.3 mph 21.9 mph N/A Rain Rain
2:35 PM 67.3 °F 61.9 °F 83% 29.89 in 0.5 mi Calm Calm - 0.74 in Rain Light Rain
2:55 PM 64.9 °F 61.7 °F 89% 29.89 in 0.2 mi WNW 11.5 mph - 1.67 in   Overcast
3:15 PM 64.9 °F 63.0 °F 93% 29.90 in 1.2 mi SSW 8.1 mph 16.1 mph 0.58 in Rain Light Rain
3:35 PM 63.5 °F 61.3 °F 93% 29.88 in 1.5 mi WSW 3.5 mph 15.0 mph 1.46 in Rain Heavy Rain
3:55 PM 63.5 °F 61.5 °F 93% 29.86 in 0.2 mi SSE 19.6 mph 33.4 mph 2.01 in Rain Light Rain
4:15 PM 64.2 °F 61.9 °F 92% 29.86 in 10.0 mi SSE 3.5 mph - 0.02 in Rain Rain
4:35 PM 65.1 °F 63.0 °F 93% 29.85 in 10.0 mi SSE 4.6 mph - 0.02 in Rain Rain
4:55 PM 65.1 °F 62.8 °F 92% 29.86 in 10.0 mi South 6.9 mph - 0.02 in Rain Light Rain
5:15 PM 65.1 °F 63.3 °F 94% 29.86 in 10.0 mi SSE 6.9 mph - 0.01 in Rain Rain
5:35 PM 65.8 °F 64.4 °F 95% 29.85 in 10.0 mi South 8.1 mph - 0.02 in Rain Rain
5:55 PM 66.6 °F 65.3 °F 96% 29.85 in 7.0 mi SSE 5.8 mph - 0.03 in Rain Heavy Rain
6:15 PM 66.7 °F 65.3 °F 95% 29.85 in 7.0 mi SSW 13.8 mph 21.9 mph N/A Rain Rain
6:35 PM 66.0 °F 64.4 °F 94% 29.85 in 7.0 mi SSW 12.7 mph 20.7 mph N/A Rain Rain
6:55 PM 65.3 °F 63.5 °F 94% 29.85 in 7.0 mi SSW 11.5 mph - N/A Rain Rain
7:15 PM 64.8 °F 63.1 °F 94% 29.86 in 10.0 mi South 12.7 mph 17.3 mph N/A Rain Rain
7:35 PM 64.6 °F 63.1 °F 95% 29.84 in 7.0 mi South 12.7 mph 18.4 mph N/A Rain Heavy Rain
7:55 PM 64.6 °F 63.1 °F 95% 29.85 in 7.0 mi South 11.5 mph 19.6 mph N/A Rain Rain
8:15 PM 64.6 °F 63.5 °F 96% 29.85 in 5.0 mi South 11.5 mph - N/A Rain Heavy Rain
8:35 PM 64.8 °F 63.5 °F 96% 29.84 in 7.0 mi South 13.8 mph - N/A Rain Heavy Rain
8:55 PM 64.6 °F 63.5 °F 96% 29.84 in 7.0 mi SSW 9.2 mph - N/A Rain Heavy Rain
9:15 PM 64.4 °F 63.3 °F 96% 29.85 in 7.0 mi SSW 9.2 mph - N/A Rain Rain
9:35 PM 64.6 °F 63.5 °F 96% 29.85 in 7.0 mi SSW 9.2 mph - N/A Rain Heavy Rain
9:55 PM 64.4 °F 63.1 °F 96% 29.85 in 7.0 mi South 9.2 mph - N/A Rain Rain
10:15 PM 64.4 °F 63.0 °F 95% 29.85 in 7.0 mi South 9.2 mph - N/A Rain Heavy Rain
10:35 PM 64.4 °F 62.8 °F 94% 29.83 in 7.0 mi South 10.4 mph - N/A Rain Rain
10:55 PM 64.0 °F 62.8 °F 96% 29.84 in 7.0 mi South 6.9 mph - N/A Rain Heavy Rain
11:15 PM 64.0 °F 62.8 °F 96% 29.82 in 7.0 mi South 11.5 mph - N/A Rain Rain
11:35 PM 64.0 °F 63.0 °F 96% 29.81 in 7.0 mi South 10.4 mph - N/A Rain Rain
11:55 PM 64.0 °F 63.0 °F 96% 29.79 in 10.0 mi SSE 12.7 mph 18.4 mph N/A Rain Light Rain